Tracking 18871 objects as of 13-Dec-2017
HD Live streaming from Space Station
objects crossing your sky now

GLOBALSTAR M006

Track GLOBALSTAR M006 now!
10-day predictions
GLOBALSTAR M006 is classified as:


NORAD ID: 25307
Int'l Code: 1998-023B
Perigee: 1,878.5 km
Apogee: 1,883.6 km
Inclination: 52.0 °
Period: 124.3 minutes
Semi major axis: 8252 km
RCS: 2.7065 m2 (large)
Launch date: April 24, 1998
Source: Globalstar (GLOB)
Launch site: AIR FORCE EASTERN TEST RANGE (AFETR)
aabbcc
Your satellite tracking list
Your tracking list is empty




NASA's NSSDC Master Catalog

Two Line Element Set (TLE):
1 25307U 98023B   17346.93075465 -.00000062 +00000-0 +28270-3 0  9990
2 25307 051.9911 208.9442 0003085 174.4306 285.0460 11.58128795899025
Source of the keplerian elements: AFSPC